Location: Conjunto S�o Francisco de Assis
(19.8314°S, 44.0113°W)
Time: 14:01:52
(UTC+00:00)

Daily predictions for brighter satellites

Satellite Brightness Start Highest point End
(mag) Time Altitude Azimuth Time Altitude Azimuth Time Altitude Azimuth
Cosmos 1812 Rocket 3.6 20:44:01 10° S 20:48:29 77° E 20:52:54 10° N
Aureole 1 Rocket 4.3 20:42:34 10° S 20:50:38 76° ESE 20:57:02 10° NNE
COSMOS 2428 3.0 20:45:42 10° N 20:51:08 47° ENE 20:56:36 10° SSE
NOAA 6 4.0 20:46:43 10° SSE 20:51:54 79° ENE 20:57:00 10° N
Skynet4D Del rocket 3.9 20:46:38 10° WSW 20:51:55 53° SSE 20:57:29 10° E
SMAP 3.1 20:48:58 10° SSE 20:53:37 61° E 20:58:13 10° N
EPKM 3.5 20:48:09 10° WNW 20:54:47 44° N 20:57:01 10° E
CZ-2C R/B 3.0 20:52:00 10° SSW 20:55:04 19° SSE 20:58:00 10° ESE
ERS-2 3.8 20:54:50 10° ENE 20:56:45 14° ESE 20:58:39 10° SE
Radarsat Rocket 4.0 20:56:31 10° SSE 21:02:30 65° ENE 21:08:14 10° N
H-2A R/B 3.1 20:59:50 10° SE 21:03:14 29° E 21:06:34 10° NNE
Cosmos 2180 Rocket 4.5 20:57:28 10° S 21:03:43 72° E 21:09:50 10° N
Sakura Rocket 3.5 21:01:16 10° SW 21:05:07 44° SSE 21:09:51 11° E
Cosmos 1992 Rocket 4.0 21:01:51 10° N 21:07:04 84° ENE 21:12:21 10° SSE
Tianhe-1 2.6 21:04:47 10° SSW 21:07:05 19° SSE 21:08:42 13° ESE
Aurora 2 Rocket 3.4 21:06:11 10° NW 21:09:49 28° NNE 21:12:28 12° ENE
FengYun 1-2 T 4.2 21:04:51 10° SSE 21:10:25 76° ENE 21:15:53 10° N
Cosmos 1825 2.5 21:07:25 10° NNE 21:11:01 43° E 21:14:39 10° SSE
CZ-4 R/B 3.5 21:15:22 11° ENE 21:15:22 11° ENE 21:16:01 10° ENE
Orbus 21S 4.1 20:49:43 10° W 21:15:14 72° S 21:18:48 15° E
H-2A R/B 3.3 21:13:57 12° SE 21:17:04 19° E 21:20:33 10° NE
Cosmos 1689 Rocket 2.3 21:14:53 10° NNE 21:17:32 38° ESE 21:20:13 10° S
Cosmos 1953 Rocket 4.2 21:13:30 10° NNW 21:17:48 59° W 21:22:12 10° S
CZ-4B R/B 3.1 21:12:48 10° SSE 21:18:05 64° ENE 21:23:18 10° N
CZ-2D R/B 3.7 21:17:58 10° SSE 21:21:39 39° E 21:25:16 10° N
Cosmos 2263 Rocket 4.5 21:22:07 10° SW 21:26:48 27° WNW 21:31:25 10° NNW
Cosmos 2219 Rocket 3.0 21:23:51 10° NNW 21:29:19 53° WSW 21:34:49 10° S
OAO 3 Rocket 4.2 21:27:49 10° WSW 21:32:15 43° NW 21:36:39 10° NE
Cosmos 1844 Rocket 2.9 21:27:25 10° S 21:32:45 44° ESE 21:38:03 10° NE
SWIFT 3.1 21:29:00 10° NW 21:32:58 41° NNE 21:35:04 23° ENE
GPS 2-15 Rocket1 3.2 21:28:24 10° W 21:33:23 89° S 21:36:15 25° E
Cosmos 2058 2.8 21:30:54 10° N 21:34:58 89° E 21:39:07 10° S
Cosmos 1428 Rocket 4.4 21:28:53 10° N 21:35:07 70° E 21:41:21 10° S
Cosmos 2098 Rocket 3.5 21:30:28 10° NNW 21:35:24 65° W 21:39:22 10° S
ATLAS 3B R/B 2.9 21:28:28 10° NNW 21:35:55 73° ENE 21:43:24 10° SSE
SAR-Lupe-4 3.4 21:33:54 10° NNE 21:37:28 72° ESE 21:41:04 10° S
ASTRO F (AKARI) 4.4 21:36:39 24° SSE 21:38:24 56° ENE 21:41:43 10° N
Cosmos 1980 4.0 21:34:51 10° N 21:40:14 46° ENE 21:43:46 21° SE
Cosmos 1092 Rocket 4.1 21:34:09 10° N 21:40:16 78° W 21:46:30 10° S
Cosmos 1844 3.9 21:40:56 10° S 21:46:34 49° ESE 21:52:08 10° NE
Genesis I 3.5 21:44:32 10° N 21:48:21 45° ENE 21:48:39 44° E
Cosmos 2333 Rocket 4.2 21:46:19 10° NW 21:51:00 27° WSW 21:55:43 10° SSW
IUS-9 SRM-1 4.5 21:48:45 10° W 21:52:47 51° NNW 22:10:21 10° ENE
Delta 142 4.0 21:50:18 10° NW 21:54:14 38° NNE 21:54:44 37° NE
Cosmos 2026 Rocket 4.3 21:53:28 10° NNW 21:59:45 68° W 22:06:09 10° S
Atlas Centaur 2 3.3 21:54:16 10° W 22:00:50 48° SSW 22:04:31 29° SE
GPS 2-14 Rocket1 2.4 21:58:15 10° W 22:02:02 90° S 22:02:02 90° S
SJ-11-01 4.4 22:04:06 52° ENE 22:04:06 52° ENE 22:08:34 10° N
IRS-1C Rocket 4.2 22:04:55 49° E 22:05:13 50° E 22:10:18 10° N
Okean O Rocket 3.6 22:07:39 10° SSW 22:11:29 28° WSW 22:15:17 10° NW
Cosmos 405 Rocket 4.3 22:09:53 10° NNW 22:13:14 33° W 22:15:59 14° SSW
SL-8 R/B 4.5 22:10:01 10° WNW 22:14:39 46° SW 22:15:53 38° S
Meteor 2-15 4.4 22:11:13 10° S 22:17:21 85° W 22:23:24 10° N
Cosmos 2237 Rocket 2.4 22:18:42 10° NNW 22:24:17 67° WSW 22:26:35 36° S
BREEZE-M DEB (TANK) 4.5 22:25:27 10° WNW 22:26:58 26° W 22:26:58 26° W
CZ-2C R/B 3.2 22:30:59 10° WSW 22:32:44 24° SW 22:32:44 24° SW
Meteosat 1 Rocket2 4.3 22:31:31 10° WSW 22:33:47 36° W 22:33:47 36° W
Cosmos 1655 Rocket 4.1 22:30:18 10° N 22:35:25 62° NNE 22:35:25 62° NNE
Skynet4D Del rocket 4.0 22:39:00 10° WSW 22:43:59 60° NW 22:43:59 60° NW
CZ-4 R/B 3.6 22:51:22 24° WNW 22:51:22 24° WNW 22:53:26 10° NW
ARGOS 4.1 22:53:53 44° NW 22:53:53 44° NW 22:57:42 10° NNW
H-2A R/B 3.7 22:54:35 23° SW 22:56:21 28° WSW 23:00:35 10° NW
CZ-3B R/B 4.2 23:27:02 10° WSW 23:37:13 47° W 23:37:13 47° W
